Вернуться в каталог

FENGYUN 1C DEB

АктивенSSO
NORAD 31533·DEBRIS·🇨🇳 China

Запущен May 10, 1999 с Taiyuan Satellite Launch Center

Loading…

Ближайшие Пролёты (ближайшие 24 часа)

TLE

СвежийSource: Space-Track

Эпоха: Sep 14, 2026, 23:34 UTC

1 31533U 99025BXY 26257.98210014  .00000476  00000-0  20625-3 0  9992
2 31533  98.9347 161.8570 0063874 268.7496  90.6366 14.28057716700654

Отслеживайте FENGYUN 1C DEB в реальном времени с AllMySat

Download on the App Store